CAPE
41 17 19 33 7 0 0 0 0 0 0 0 0 0 0 18 7 2 0 0 0 0 0 0 0 0 0 0 0 0 0 0 0 0 0 0 0 0 0 0 0 0 0 0 0
51 27 29 26 23 6 0 0 0 0 0 0 0 0 0 3 10 3 0 0 0 0 0 0 0 0 0 0 0 0 0 0 0 0 0 0 0 0 0 0 0 0 0 0 0
40 47 16 25 23 12 3 0 0 0 0 0 9 13 8 10 0 0 0 0 0 0 0 0 0 0 0 0 0 0 0 0 0 0 0 0 0 0 0 0 0 0 0 0 0
44 32 11 8 10 22 9 12 0 0 0 0 3 25 30 13 0 0 0 0 0 0 0 0 0 0 0 0 0 0 0 0 0 0 0 0 0 0 0 0 0 0 0 0 0
32 29 30 1 5 6 20 2 3 0 0 0 0 36 27 7 1 10 0 0 0 0 0 0 0 0 0 0 0 0 0 0 0 0 0 0 0 0 0 0 0 0 0 0 0
23 26 27 25 1 8 20 14 6 0 2 0 0 43 27 3 0 0 0 2 0 0 0 0 0 0 0 0 0 0 0 0 0 0 0 0 0 0 0 0 0 0 0 0 0
5 24 21 17 19 21 32 32 11 8 21 0 0 12 20 0 0 0 26 26 28 0 3 0 0 0 0 0 0 0 0 0 0 0 0 0 0 0 0 0 0 0 0 0 0
53 25 20 23 6 12 43 33 15 13 8 21 1 6 0 1 4 13 38 0 28 27 2 0 0 0 0 0 0 0 0 0 0 0 0 0 0 0 0 0 0 0 0 0 0
44 57 34 12 7 2 31 57 33 47 27 14 0 0 0 0 0 3 49 22 16 13 0 0 0 1 0 1 2 1 0 0 0 0 0 0 0 0 0 0 0 0 0 0 0
39 48 46 18 1 17 17 43 69 80 31 27 1 3 0 0 12 6 39 29 8 0 14 0 17 4 0 14 6 11 2 0 0 0 0 0 0 0 0 0 0 0 0 0 0
48 57 45 12 12 25 29 20 41 35 21 0 0 0 0 0 14 9 47 34 23 16 2 25 2 2 3 15 38 19 4 3 0 0 0 0 0 0 0 0 0 0 0 0 0
35 62 77 75 34 16 43 12 0 12 26 3 2 0 0 19 11 26 57 17 17 6 8 14 1 0 10 5 4 1 0 4 0 0 1 0 0 0 0 0 0 0 0 0 0
50 47 94 59 48 65 7 0 1 0 28 12 2 0 0 27 3 0 1 2 11 11 3 3 0 0 0 0 1 0 0 2 2 3 0 0 0 0 0 0 0 0 0 0 0
50 60 77 55 50 28 16 8 13 1 24 15 2 2 0 11 0 11 54 27 27 11 9 5 0 1 1 0 0 0 0 0 0 11 6 0 0 0 0 0 0 0 0 0 0
78 87 66 49 0 16 0 10 30 10 25 9 1 0 0 0 0 0 21 35 0 0 1 0 0 7 6 0 0 0 0 0 2 12 16 0 8 0 0 0 0 0 0 0 0
57 38 73 45 0 0 0 15 67 38 41 18 2 2 1 0 1 20 37 31 6 7 5 0 0 0 0 0 0 0 15 9 12 13 1 0 8 0 0 0 0 0 0 0 0
105 80 32 18 1 0 10 30 32 25 0 11 5 4 0 1 10 15 0 3 1 4 14 13 7 10 0 1 14 15 26 11 11 1 0 0 0 0 0 0 0 0 0 0 0
70 115 95 0 0 18 19 6 6 1 7 0 0 0 2 0 4 7 5 1 1 0 0 1 2 3 7 10 20 8 8 3 0 0 0 0 0 0 0 0 0 0 0 0 0
151 72 63 7 9 18 7 2 0 0 0 7 2 2 2 8 0 11 5 0 0 0 0 0 1 0 0 0 0 0 11 1 1 0 0 0 0 0 0 0 0 0 0 0 0
4 38 25 13 0 19 5 0 0 0 0 29 0 7 5 13 5 14 4 0 0 0 0 0 0 0 0 0 0 23 0 18 10 12 2 0 0 0 0 0 0 0 0 0 0
13 3 0 38 23 6 1 0 0 0 1 34 49 1 2 0 1 2 0 0 0 0 1 0 0 0 4 2 2 17 0 0 1 1 1 0 0 0 0 0 0 0 0 0 0
9 0 7 61 20 0 1 0 0 0 0 14 41 7 0 0 3 1 0 0 0 0 0 0 0 0 0 0 0 2 0 0 2 0 0 0 0 0 0 0 0 0 0 0 0
8 16 22 25 4 10 0 1 1 1 7 1 14 26 0 1 9 7 4 0 0 0 0 0 6 0 1 0 0 2 0 4 0 0 2 0 0 0 0 0 0 0 0 0 0
3 7 60 26 2 1 0 1 5 6 15 34 8 0 1 4 0 0 0 0 0 1 0 1 0 0 0 0 0 0 0 1 0 0 0 0 0 0 0 1 0 0 0 0 0
0 0 0 1 1 0 1 0 4 28 13 0 2 7 3 5 0 0 0 0 1 5 4 0 0 0 0 0 0 0 0 0 0 0 0 0 0 0 0 0 1 0 0 0 0
0 0 0 0 0 0 0 0 2 3 38 0 1 6 2 0 0 0 0 0 0 1 27 2 4 0 0 0 0 0 0 0 0 1 0 0 0 0 0 0 0 0 0 0 0
0 0 0 0 0 0 0 0 1 1 28 12 0 0 7 0 0 0 0 0 0 0 1 3 0 0 1 0 0 0 0 0 0 1 0 0 0 0 0 0 0 0 0 0 0
CIN
-16 -23 -7 -4 -6 -0 -0 -0 -0 -0 -0 -0 -0 -0 -0 -6 -8 -3 -0 -0 -0 -0 -0 -0 -0 -0 -0 -0 -0 -0 -0 -0 -0 -0 -0 -0 -0 -0 -0 -0 -0 -0 -0 -0 -0
-5 -17 -14 -11 -7 -2 -0 -0 -0 -0 -0 -0 -0 -0 -0 -5 -1 -0 -0 -0 -0 -0 -0 -0 -0 -0 -0 -0 -0 -0 -0 -0 -0 -0 -0 -0 -0 -0 -0 -0 -0 -0 -0 -0 -0
-3 -8 -15 -16 -10 -12 -1 -0 -0 -0 -0 -0 -17 -12 -13 -6 -0 -0 -0 -0 -0 -0 -0 -0 -0 -0 -0 -0 -0 -0 -0 -0 -0 -0 -0 -0 -0 -0 -0 -0 -0 -0 -0 -0 -0
-1 -5 -14 -16 -22 -11 -11 -7 -0 -0 -0 -0 -8 -17 -14 -7 -0 -0 -0 -0 -0 -0 -0 -0 -0 -0 -0 -0 -0 -0 -0 -0 -0 -0 -0 -0 -0 -0 -0 -0 -0 -0 -0 -0 -0
-10 -3 -6 -8 -13 -28 -13 -4 -9 -0 -0 -0 -0 -12 -7 -0 -1 -28 -2 -0 -0 -0 -0 -0 -0 -0 -0 -0 -0 -0 -0 -0 -0 -0 -0 -0 -0 -0 -0 -0 -0 -0 -0 -0 -0
-10 -18 -8 -10 -16 -25 -13 -16 -13 -0 -2 -0 -0 -8 -1 -0 -0 -0 -0 -20 -0 -1 -0 -0 -0 -0 -0 -0 -0 -0 -0 -0 -0 -0 -0 -0 -0 -0 -0 -0 -0 -0 -0 -0 -0
-35 -11 -20 -19 -14 -16 -14 -16 -19 -14 -14 -0 -0 -13 -0 -1 -0 -0 -32 -13 -20 -0 -1 -0 -0 -0 -0 -0 -0 -0 -0 -0 -0 -0 -0 -0 -0 -0 -0 -0 -0 -0 -0 -0 -0
-7 -21 -19 -23 -26 -20 -9 -17 -23 -20 -21 -15 -2 -3 -0 -1 -14 -16 -18 -0 -40 -32 -3 -0 -0 -0 -0 -0 -0 -0 -0 -0 -0 -0 -0 -0 -0 -0 -0 -0 -0 -0 -0 -0 -0
-12 -10 -27 -28 -34 -20 -12 -7 -25 -14 -20 -9 -0 -1 -0 -0 -0 -25 -9 -3 -23 -48 -0 -0 -0 -4 -0 -10 -1 -3 -0 -0 -0 -0 -0 -0 -0 -0 -0 -0 -0 -0 -0 -0 -0
-9 -11 -27 -28 -26 -34 -23 -8 -14 -6 -8 -8 -2 -5 -0 -0 -4 -17 -39 -23 -10 -0 -21 -0 -3 -6 -6 -2 -0 -3 -5 -0 -0 -0 -0 -0 -0 -0 -0 -0 -0 -0 -0 -0 -0
-15 -23 -18 -26 -26 -31 -23 -3 -0 -0 -8 -0 -0 -0 -0 -0 -9 -9 -34 -10 -7 -1 -0 -1 -0 -0 -1 -7 -4 -10 -10 -10 -0 -0 -0 -0 -0 -0 -0 -0 -0 -0 -0 -0 -0
-12 -19 -17 -13 -17 -22 -21 -0 -0 -9 -2 -45 -71 -0 -0 -3 -2 -3 -25 -0 -0 -0 -4 -1 -0 -0 -2 -6 -4 -15 -3 -6 -5 -0 -3 -4 -0 -0 -0 -0 -0 -0 -0 -0 -0
-11 -20 -23 -12 -11 -10 -15 -0 -1 -0 -3 -11 -17 -0 -0 -18 -20 -0 -1 -1 -0 -0 -0 -0 -0 -0 -0 -0 -0 -0 -0 -5 -6 -27 -0 -7 -0 -0 -0 -0 -0 -0 -0 -0 -0
-12 -23 -36 -17 -4 -14 -5 -37 -42 -32 -3 -1 -5 -10 -0 -9 -0 -22 -11 -3 -0 -0 -1 -2 -0 -7 -4 -0 -0 -0 -0 -0 -2 -3 -1 -0 -0 -0 -0 -0 -0 -0 -0 -0 -0
-11 -20 -38 -6 -0 -3 -0 -40 -34 -21 -2 -25 -1 -1 -0 -0 -0 -0 -41 -5 -0 -0 -5 -0 -1 -6 -1 -0 -0 -0 -0 -0 -3 -3 -2 -0 -1 -0 -0 -0 -0 -0 -0 -0 -0
-3 -19 -30 -2 -1 -0 -0 -35 -1 -2 -4 -9 -1 -1 -2 -3 -2 -8 -10 -11 -5 -2 -10 -0 -0 -0 -0 -0 -1 -0 -5 -5 -4 -1 -4 -0 -2 -0 -0 -0 -0 -0 -0 -0 -0
-2 -5 -16 -37 -0 -0 -28 -9 -0 -9 -8 -15 -0 -0 -0 -0 -1 -2 -0 -0 -0 -0 -0 -0 -0 -25 -0 -0 -4 -5 -0 -1 -3 -0 -0 -0 -1 -0 -0 -0 -0 -0 -0 -0 -0
-5 -1 -1 -4 -0 -10 -16 -48 -71 -33 -31 -1 -0 -0 -0 -0 -1 -2 -1 -0 -0 -0 -0 -3 -2 -0 -18 -3 -0 -1 -2 -0 -1 -0 -0 -0 -0 -0 -0 -0 -0 -0 -0 -0 -0
-1 -2 -0 -6 -47 -9 -2 -39 -0 -0 -0 -57 -0 -1 -1 -0 -0 -1 -1 -0 -0 -0 -0 -0 -3 -0 -0 -0 -5 -0 -1 -0 -13 -0 -3 -0 -0 -0 -0 -0 -0 -0 -0 -0 -0
-4 -0 -0 -16 -2 -7 -21 -0 -0 -0 -0 -44 -0 -1 -0 -0 -0 -0 -1 -0 -0 -0 -0 -0 -1 -0 -0 -0 -7 -4 -0 -1 -20 -7 -10 -0 -0 -0 -0 -0 -0 -0 -0 -0 -0
-6 -0 -1 -22 -9 -0 -7 -0 -0 -0 -16 -17 -8 -0 -4 -1 -3 -1 -1 -0 -0 -0 -3 -0 -0 -0 -0 -1 -1 -12 -0 -0 -0 -6 -1 -0 -0 -0 -0 -0 -0 -0 -0 -0 -0
-0 -0 -3 -4 -0 -0 -1 -0 -0 -0 -0 -23 -24 -47 -0 -0 -0 -0 -0 -0 -0 -0 -1 -0 -0 -0 -0 -0 -0 -10 -2 -0 -2 -0 -0 -0 -0 -0 -0 -0 -0 -0 -0 -0 -0
-2 -0 -1 -8 -1 -25 -0 -90 -1 -5 -51 -2 -12 -20 -0 -1 -1 -2 -3 -0 -0 -0 -0 -0 -6 -1 -2 -0 -0 -4 -1 -5 -0 -0 -20 -0 -0 -0 -0 -0 -0 -0 -0 -0 -0
-14 -8 -2 -0 -1 -1 -0 -36 -48 -9 -24 -13 -35 -0 -20 -4 -2 -5 -3 -0 -12 -13 -0 -76 -0 -0 -0 -0 -0 -0 -0 -0 -0 -1 -0 -0 -0 -0 -0 -0 -0 -0 -0 -0 -0
-0 -0 -2 -0 -1 -0 -3 -47 -96 -33 -24 -0 -12 -21 -23 -8 -0 -0 -0 -2 -23 -20 -60 -0 -0 -0 -0 -0 -0 -0 -0 -0 -0 -0 -0 -0 -0 -0 -0 -0 -0 -0 -0 -0 -0
-0 -0 -0 -0 -0 -0 -0 -0 -86 -83 -61 -0 -0 -23 -15 -0 -0 -0 -0 -0 -4 -11 -5 -18 -7 -0 -0 -0 -0 -0 -0 -0 -0 -0 -0 -0 -0 -0 -0 -0 -0 -0 -0 -0 -0
-0 -0 -0 -0 -0 -0 -0 -0 -96 -69 -52 -71 -0 -0 -8 -0 -0 -0 -0 -0 -20 -13 -36 -22 -2 -12 -1 -0 -0 -0 -0 -0 -0 -0 -0 -0 -0 -0 -0 -0 -0 -0 -0 -0 -0
Wind_Speed
37 36 35 33 31 30 30 30 31 31 31 29 28 27 26 25 25 25 26 21 20 22 24 24 20 22 18 18 17 15 19 21 19 19 19 18 17 17 16 16 16 17 18 19 12
38 37 35 34 32 30 29 29 29 30 30 29 27 26 26 26 27 31 28 27 24 23 21 21 22 22 20 19 18 18 20 19 16 17 17 17 17 19 18 18 18 19 19 18 10
39 37 36 34 33 30 30 28 28 29 29 28 27 25 24 23 31 33 31 28 25 21 20 19 20 20 21 19 19 19 23 18 17 17 18 19 18 18 18 19 18 20 19 15 8
37 37 35 34 33 32 30 29 27 27 27 28 27 24 23 24 37 25 28 28 24 20 20 19 19 22 23 23 20 25 21 20 21 20 21 21 20 22 19 20 16 20 18 12 8
38 37 36 34 33 31 31 28 27 26 27 26 26 24 23 31 33 21 19 21 21 21 21 21 23 22 25 23 24 25 25 23 23 23 24 24 24 24 22 20 21 21 16 11 8
39 39 37 36 34 32 30 29 27 26 26 26 25 24 29 42 27 28 22 17 18 21 22 21 22 21 25 25 25 22 24 27 26 26 26 28 29 23 23 20 22 23 21 16 12
44 39 39 36 35 33 31 29 27 25 24 25 23 26 36 39 23 25 23 21 17 18 23 22 22 22 23 27 25 26 33 31 27 25 27 26 33 28 26 26 27 26 25 21 17
45 42 39 37 35 33 31 29 27 25 23 23 21 27 41 29 26 22 22 25 20 18 19 21 22 23 26 24 25 28 31 40 28 26 26 25 42 27 26 30 32 31 29 28 25
42 42 40 38 37 34 32 29 28 24 22 20 24 28 40 26 32 26 21 24 22 23 21 18 20 27 27 31 34 32 43 38 35 27 28 29 42 29 31 34 37 36 35 36 33
42 41 40 38 36 34 30 28 27 24 22 21 26 31 36 35 28 28 21 17 22 23 26 26 25 31 31 32 44 39 39 39 40 33 33 38 47 40 39 39 40 41 39 39 37
43 39 39 38 35 33 28 25 30 33 33 36 33 34 24 26 21 28 26 22 21 25 33 29 38 42 34 32 34 36 40 43 36 32 37 41 49 47 43 43 44 42 42 42 41
41 39 36 36 35 31 29 36 36 28 36 34 33 34 27 22 28 27 23 29 30 35 30 32 48 35 33 33 36 37 43 44 35 33 36 43 57 50 46 47 44 43 43 42 42
40 36 35 32 31 30 35 36 25 22 33 41 34 35 31 26 28 29 27 29 33 34 34 40 34 30 34 37 40 42 46 45 43 36 37 41 62 56 48 40 40 37 36 37 33
40 36 34 31 31 32 38 29 22 22 41 42 41 36 32 30 38 25 25 29 33 37 31 36 36 30 31 39 35 46 35 37 39 41 53 32 69 56 50 46 39 38 38 38 37
37 36 34 32 29 38 31 28 22 23 56 35 38 25 30 33 28 31 25 28 36 33 32 37 31 35 37 38 30 40 32 35 37 42 44 49 51 58 43 53 48 42 39 40 40
34 32 33 32 31 32 24 24 25 43 57 34 31 37 31 38 32 24 26 24 25 32 32 37 30 30 36 34 30 29 33 34 35 37 50 53 45 67 55 49 44 37 40 37 33
31 32 31 31 38 29 28 30 49 59 34 34 37 36 41 40 37 31 31 33 34 38 39 35 39 29 29 34 29 30 33 43 45 46 53 41 39 51 47 37 36 34 29 26 23
31 28 29 31 29 29 33 41 53 51 39 31 29 36 42 37 40 36 34 37 35 33 37 41 45 34 29 32 32 32 33 43 54 51 48 36 45 47 35 34 30 31 25 21 16
29 29 28 30 27 31 42 57 54 42 39 31 32 41 41 37 36 37 39 40 36 33 38 39 42 27 29 30 30 30 38 35 42 39 43 40 41 42 35 33 27 18 14 14 13
27 27 31 27 27 34 49 55 44 33 43 34 37 32 40 42 40 39 39 38 37 35 29 28 35 29 26 25 31 33 32 39 37 46 47 41 39 37 27 26 25 16 12 11 11
22 28 27 26 26 40 52 55 51 36 31 41 36 39 36 34 35 38 35 31 33 30 29 27 30 28 25 29 28 27 32 27 25 25 32 31 28 25 34 24 18 12 8 7 11
20 31 24 28 40 40 50 37 49 44 36 37 37 33 37 35 36 36 38 33 24 25 32 27 27 34 30 25 26 29 31 34 34 27 30 34 37 32 31 26 15 7 7 12 11
26 23 20 32 43 40 29 42 38 48 45 38 37 38 32 34 34 34 34 30 25 25 26 27 32 34 36 36 34 37 37 37 34 37 42 38 31 25 23 20 10 8 11 14 15
29 23 22 29 39 41 39 38 45 43 46 39 35 39 34 34 33 29 29 27 27 26 23 20 32 36 39 36 29 36 38 36 35 39 38 37 37 28 21 18 12 9 10 13 16
24 19 16 22 33 39 34 37 46 45 50 42 38 42 42 39 37 37 34 29 26 27 25 24 35 33 35 33 31 32 31 32 40 41 41 40 34 23 16 13 14 14 16 16 17
21 12 15 18 24 35 37 41 40 45 45 56 50 42 35 44 41 36 30 31 29 28 27 26 33 30 36 33 32 38 36 34 34 35 37 31 35 21 20 20 16 16 18 20 21
15 17 11 10 15 28 41 42 38 39 42 45 48 45 47 42 37 34 32 26 26 26 25 24 25 26 34 27 30 42 40 33 33 32 31 34 33 22 26 25 23 18 23 25 26
Wind_Direction
256 256 255 254 255 256 255 256 256 257 258 261 263 265 268 272 275 276 273 281 287 291 296 299 307 308 313 310 315 322 304 296 302 307 314 327 328 342 346 344 349 355 355 2 52
255 254 254 254 253 254 255 256 256 256 257 259 262 264 267 270 272 269 268 272 279 286 296 297 295 302 299 302 305 298 295 298 310 313 319 327 328 329 332 335 337 342 347 356 49
252 253 252 252 252 253 253 255 256 256 256 257 260 263 266 269 272 271 266 267 271 281 287 295 299 299 291 296 296 296 289 298 303 311 312 314 318 330 328 325 331 334 344 357 12
252 250 250 250 251 252 253 253 255 255 256 256 257 261 263 264 261 277 272 263 265 272 281 286 289 286 285 284 291 286 293 296 300 303 305 305 312 310 314 319 335 332 338 347 353
250 249 248 249 249 250 251 253 253 255 255 256 255 257 260 259 258 280 293 274 262 265 267 274 275 280 279 285 287 284 287 293 295 298 298 301 300 303 304 313 319 325 332 330 325
249 247 247 247 247 248 249 250 252 253 254 256 254 254 257 256 268 267 280 287 269 260 265 267 276 277 281 280 282 291 289 288 292 293 295 294 295 298 304 311 313 316 317 316 310
246 246 245 245 245 246 247 249 250 252 255 255 255 254 256 255 273 266 264 272 278 270 263 268 271 274 279 281 283 285 283 287 289 292 293 298 290 291 298 302 304 309 311 309 302
243 241 243 242 243 244 245 246 249 250 252 254 257 257 256 261 264 273 264 264 268 278 276 273 271 273 275 282 285 282 281 277 286 290 294 294 284 297 303 301 300 303 305 305 304
239 238 241 241 241 243 243 243 246 247 250 252 257 257 258 261 252 257 266 260 262 267 273 280 273 268 272 271 274 276 274 278 283 291 290 286 286 294 300 299 298 301 302 302 301
238 237 237 239 239 238 239 240 244 247 246 253 260 256 260 254 252 247 259 259 263 259 263 264 269 266 265 262 264 272 276 279 280 286 287 285 284 291 293 296 296 297 298 297 297
235 235 235 235 235 232 231 234 235 242 234 244 250 250 271 259 253 247 247 254 264 261 254 259 257 257 262 267 272 276 279 279 284 288 287 285 285 289 293 293 294 295 295 295 292
231 230 231 233 230 226 224 232 231 247 240 247 255 246 264 259 253 249 238 246 251 253 255 259 255 263 265 269 271 274 277 278 287 289 289 288 284 289 293 291 294 295 295 295 292
223 223 225 226 225 222 225 228 229 244 247 244 251 248 251 253 258 246 236 244 250 251 250 254 270 260 262 266 267 270 271 275 282 288 291 293 284 287 291 293 295 295 296 297 293
216 217 217 219 224 224 227 223 232 246 246 247 243 250 245 251 256 255 241 244 254 249 253 260 259 265 264 264 265 270 274 278 280 283 282 289 282 285 290 291 295 297 297 297 298
210 212 214 215 227 223 228 222 233 241 245 247 240 253 241 241 253 249 248 246 247 249 251 259 261 258 263 265 267 274 279 277 279 279 284 281 284 286 293 291 293 296 297 298 296
210 206 209 219 225 225 222 217 226 235 242 245 236 231 234 239 249 249 243 249 256 251 258 259 269 262 264 268 264 281 280 283 282 282 278 278 280 283 288 291 294 297 297 299 303
212 212 208 213 224 217 214 220 230 236 234 242 235 229 231 238 240 244 237 238 244 248 252 258 259 268 269 267 267 264 272 278 279 275 278 286 280 279 293 297 293 296 300 302 308
217 213 216 222 218 213 214 226 234 231 234 237 235 230 232 233 238 240 239 241 243 249 252 254 260 256 261 263 268 262 261 269 275 279 284 288 281 285 293 299 290 284 294 298 307
215 218 221 225 216 217 219 228 232 232 229 232 231 232 235 234 238 237 239 240 242 239 250 255 261 272 267 263 261 271 264 269 277 283 286 286 289 292 288 290 297 295 275 290 305
217 221 226 220 212 220 225 231 233 240 225 230 231 230 231 232 235 234 237 243 246 238 251 262 266 268 271 270 268 264 281 270 268 274 277 286 287 286 298 286 282 280 275 289 306
217 226 230 217 215 227 230 233 231 234 238 222 231 231 231 232 231 234 242 254 234 239 242 254 265 271 268 260 265 268 266 280 278 266 270 285 297 301 288 292 282 270 260 285 308
211 232 223 212 220 232 231 238 230 230 235 236 234 237 232 228 232 237 238 239 239 231 235 247 263 262 264 274 270 267 265 264 269 280 277 278 281 307 302 298 293 271 287 305 315
215 231 223 216 225 232 239 231 236 227 231 237 234 234 237 232 238 240 241 247 241 236 234 237 256 260 266 268 267 263 261 260 268 272 268 281 287 313 315 312 294 293 320 323 316
211 222 227 226 232 232 234 234 232 232 229 232 240 236 233 233 237 234 235 245 239 241 242 233 255 255 259 268 267 264 261 260 261 266 267 273 284 294 300 313 310 314 315 314 319
227 238 234 217 229 233 235 238 232 234 230 228 239 237 229 234 232 237 241 247 243 239 239 241 253 257 264 270 269 271 268 263 260 268 270 275 278 280 284 286 302 315 308 309 311
232 247 248 255 237 234 231 232 232 229 228 226 233 232 233 232 230 231 234 242 244 238 235 246 259 264 266 270 271 269 270 271 270 271 273 281 278 281 276 279 281 294 295 298 306
249 256 249 250 224 225 232 232 234 231 233 228 228 237 236 238 236 246 242 244 247 234 233 239 254 265 265 270 273 270 266 267 270 274 274 271 278 282 279 278 273 289 282 289 295